[[{"header":{"parameterUnit":"m.s-1","parameterCategory":1,"la1":30.2991,"la2":30.254,"lo1":-89.0895,"lo2":-89.0444,"dy":0.0017,"dx":0.0017,"nx":28,"ny":28,"refTime":"2024-11-25T03:00:00:Z","depth":0,"parameterNumber":2,"parameterNumberName":"U-component_of_WINDS"},"data":[0,0,0,0,0,0,0,0,0,0,0,0,0,0,0,0,0,0,0,0,0,0,0,0,0,0,0,0,0,0,0,0,0,0,0,0,0,0,0,0,0,0,0,0,0,0,0,0,0,0,0,0,0,0,0,0,0,0,0.5928,0.5928,0,0.5915,0.5914,0.5914,0.5903,0.5902,0.5902,0.5902,0.5888,0.5887,0.5887,0,0,0,0,0,0,0,0,0,0,0,0,0,0.5945,0.5945,0.5928,0.5928,0.5928,0.5915,0.5914,0.5914,0.5903,0.5902,0.5902,0.5902,0.5888,0.5887,0.5887,0,0,0,0,0,0,0,0,0,0,0,0,0,0.5935,0.5945,0.5928,0.5921,0.592,0.5915,0.5914,0.5914,0.5903,0.5902,0.5902,0.5902,0.5888,0.5888,0.5887,0.5889,0,0,0.5886,0.5886,0,0,0,0,0,0,0,0,0.5936,0.5935,0.5922,0.5921,0.592,0.591,0.5915,0.5906,0.5903,0.5909,0.5902,0.5902,0.5895,0.5894,0.5892,0.5888,0.5887,0.5886,0.5886,0.5885,0.5885,0,0,0,0,0,0,0,0.5937,0.5935,0.5923,0.5922,0.5921,0.5918,0.5916,0.5913,0.5903,0.5909,0.5908,0.5906,0.5895,0.5893,0.5892,0.5887,0.5886,0.5886,0.5885,0.5885,0.5885,0.5885,0,0,0,0,0,0,0.5938,0.5936,0.5923,0.5922,0.5928,0.5918,0.5916,0.5914,0.5903,0.5902,0.5906,0.5906,0.5893,0.5892,0.5891,0.5893,0.5885,0.5885,0.5885,0.5885,0.5885,0.5885,0,0,0,0,0,0,0.5939,0.5937,0.5924,0.5929,0.5927,0.5918,0.5915,0.5913,0.5911,0.5902,0.59,0.5906,0.5893,0.5892,0.589,0.5892,0.5885,0.5885,0.5884,0.5885,0.5885,0.5896,0,0,0,0,0,0,0.5939,0.5938,0.5938,0.5929,0.5927,0.5922,0.5915,0.5913,0.591,0.5909,0.5901,0.5899,0.5893,0.589,0.5889,0.5892,0.5884,0.5884,0.5885,0.5885,0.5896,0.5897,0.5898,0,0,0,0,0,0.594,0.5941,0.5938,0.5936,0.5927,0.5922,0.5921,0.5914,0.5911,0.5911,0.5905,0.5899,0.5892,0.589,0.5889,0.5891,0.5884,0.5884,0.5885,0.5895,0.5897,0.5898,0,0,0,0,0,0,0.5949,0.594,0.5936,0.5934,0.5929,0.592,0.592,0.5916,0.5912,0.5911,0.5902,0.59,0.5899,0.5895,0.5893,0.5893,0.5887,0.5888,0.5896,0.5897,0.5898,0.5899,0.5884,0,0,0,0,0,0.5952,0.5949,0.594,0.594,0.5937,0.593,0.5927,0.5922,0.5917,0.5915,0.5909,0.5904,0.5901,0.5899,0.5895,0.5895,0.5894,0.5896,0.5898,0.5899,0.5899,0.59,0.5901,0.5887,0.5887,0.5887,0,0,0.5955,0.595,0.5948,0.5941,0.5937,0.5935,0.5928,0.5925,0.5924,0.5914,0.5912,0.5908,0.5902,0.5902,0.5901,0.5898,0.5903,0.5899,0.59,0.59,0.5901,0.5902,0.5903,0.5887,0.5887,0.5887,0,0,0.5961,0.5956,0.5956,0.5952,0.5946,0.5941,0.5941,0.5933,0.593,0.5928,0.5922,0.592,0.5914,0.5911,0.5908,0.5915,0.591,0.5914,0.592,0.5921,0.5922,0.5923,0.5927,0.5928,0.5914,0.5914,0.5914,0,0.5966,0.5963,0.5956,0.5954,0.5952,0.5944,0.5944,0.5941,0.5934,0.5932,0.5929,0.5923,0.5918,0.5918,0.5919,0.5917,0.5918,0.5914,0.5923,0.5924,0.5925,0.5927,0.5929,0.5915,0.5915,0.5915,0.5915,0,0.597,0.5968,0.5968,0.5962,0.596,0.5959,0.5953,0.5951,0.5947,0.5943,0.5942,0.5936,0.5932,0.5931,0.5927,0.593,0.5929,0.5924,0.5919,0.5927,0.5929,0.593,0.5916,0.5916,0.5915,0.5915,0,0,0.598,0.5972,0.5972,0.597,0.5964,0.5962,0.5961,0.5958,0.5957,0.5953,0.5953,0.5949,0.5946,0.5943,0.5938,0.5939,0.5946,0.5935,0.5935,0.5938,0.5951,0.5954,0.5955,0.5943,0.5943,0.5943,0.5951,0,0.5985,0.5983,0.5978,0.5978,0.5976,0.597,0.597,0.5966,0.5963,0.5961,0.5957,0.5955,0.595,0.5949,0.5949,0.5945,0.5949,0.5944,0.5943,0.5943,0.5945,0.5957,0.596,0.5968,0.5952,0.5953,0.5953,0,0.599,0.5987,0.5987,0.5983,0.5982,0.5982,0.5979,0.5977,0.5974,0.5971,0.5969,0.5964,0.5964,0.5959,0.5959,0.5957,0.5956,0.5954,0.5954,0.5953,0.5948,0.5957,0.597,0.5971,0.5954,0.5954,0.5954,0,0.5998,0.5994,0.5994,0.5993,0.5987,0.5987,0.5985,0.5981,0.598,0.5977,0.5977,0.5974,0.5973,0.5972,0.5967,0.5964,0.5968,0.5962,0.5966,0.5966,0.5967,0.5967,0.598,0.5966,0.5966,0.5966,0.5966,0,0.6004,0.6004,0.5998,0.5998,0.5999,0.5993,0.5994,0.5991,0.5988,0.5988,0.5983,0.5983,0.5976,0.5976,0.5972,0.5973,0.5972,0.5971,0.597,0.5971,0.5971,0.597,0.597,0.5967,0.5967,0.5967,0.5966,0,0.6012,0.6008,0.6008,0.6003,0.6002,0.6003,0.5999,0.5999,0.5996,0.5996,0.5995,0.599,0.599,0.5985,0.5983,0.5981,0.5983,0.5981,0.5985,0.5984,0.5988,0.5988,0.6001,0.6003,0.5988,0.5988,0.5988,0,0.6016,0.6017,0.6012,0.6012,0.601,0.601,0.6009,0.6004,0.6003,0.6,0.6001,0.6,0.5999,0.5998,0.5995,0.5994,0.5992,0.5996,0.5991,0.5993,0.5992,0.5992,0.5993,0.5997,0.5997,0.5998,0.5998,0,0.6024,0.6022,0.6021,0.602,0.6019,0.6018,0.6016,0.6016,0.6011,0.6011,0.601,0.601,0.6009,0.6008,0.6007,0.6005,0.6001,0.6,0.6001,0.6002,0.6004,0.6004,0.5988,0.5999,0.5999,0.5999,0.5999,0.5999,0.603,0.6031,0.6029,0.6028,0.6027,0.6026,0.6026,0.6023,0.6023,0.6022,0.6019,0.602,0.6018,0.6015,0.6014,0.6015,0.6012,0.6013,0.6014,0.6014,0.6015,0.6004,0.6014,0.6014,0.6014,0.6014,0.6014,0,0.6038,0.6037,0.6036,0.6035,0.6035,0.6032,0.603,0.603,0.6031,0.6029,0.6029,0.6029,0.6029,0.6026,0.6026,0.6027,0.6026,0.6027,0.6027,0.6027,0.6017,0.6016,0.6029,0.6029,0.6029,0.6029,0.6029,0.6029,0.6042,0.6043,0.6042,0.6043,0.6041,0.6042,0.6041,0.6041,0.604,0.6041,0.6041,0.6039,0.6038,0.6038,0.6038,0.6037,0.6037,0.604,0.6039,0.6029,0.6028,0.6026,0.6026,0.604,0.604,0.6049,0.6049,0.6049]},{"header":{"parameterUnit":"m.s-1","parameterCategory":1,"la1":30.2991,"la2":30.254,"lo1":-89.0895,"lo2":-89.0444,"dy":0.0017,"dx":0.0017,"nx":28,"ny":28,"refTime":"2024-11-25T03:00:00:Z","depth":0,"parameterNumber":3,"parameterNumberName":"V-component_of_WINDS"},"data":[0,0,0,0,0,0,0,0,0,0,0,0,0,0,0,0,0,0,0,0,0,0,0,0,0,0,0,0,0,0,0,0,0,0,0,0,0,0,0,0,0,0,0,0,0,0,0,0,0,0,0,0,0,0,0,0,0,0,-3.2011,-3.2012,0,-3.2138,-3.2139,-3.214,-3.2168,-3.2167,-3.2166,-3.2165,-3.2289,-3.2293,-3.2298,0,0,0,0,0,0,0,0,0,0,0,0,0,-3.1789,-3.1793,-3.2011,-3.2012,-3.2014,-3.2137,-3.2139,-3.2141,-3.2168,-3.2167,-3.2166,-3.2165,-3.2288,-3.2293,-3.2298,0,0,0,0,0,0,0,0,0,0,0,0,0,-3.1898,-3.1795,-3.2011,-3.2043,-3.2047,-3.2137,-3.2139,-3.2141,-3.2168,-3.2167,-3.2165,-3.2164,-3.2286,-3.2292,-3.2299,-3.2364,0,0,-3.2318,-3.232,0,0,0,0,0,0,0,0,-3.1891,-3.1906,-3.2036,-3.2041,-3.2045,-3.2136,-3.2107,-3.2216,-3.2169,-3.2122,-3.2165,-3.2164,-3.2239,-3.2249,-3.2276,-3.237,-3.2375,-3.2318,-3.2322,-3.2325,-3.2326,0,0,0,0,0,0,0,-3.1884,-3.19,-3.2061,-3.2038,-3.2044,-3.205,-3.2063,-3.2127,-3.2186,-3.2126,-3.2128,-3.2143,-3.2241,-3.2269,-3.2279,-3.2377,-3.2318,-3.2324,-3.2327,-3.233,-3.2534,-3.2535,0,0,0,0,0,0,-3.1871,-3.1894,-3.2057,-3.2065,-3.1964,-3.2055,-3.207,-3.2108,-3.2186,-3.2196,-3.2144,-3.2144,-3.226,-3.2271,-3.2283,-3.2367,-3.2325,-3.233,-3.2334,-3.2532,-3.2534,-3.2536,0,0,0,0,0,0,-3.1866,-3.1886,-3.2052,-3.198,-3.2002,-3.206,-3.2102,-3.2111,-3.214,-3.22,-3.221,-3.2163,-3.2259,-3.2274,-3.2345,-3.2371,-3.2333,-3.2339,-3.253,-3.2533,-3.2535,-3.2533,0,0,0,0,0,0,-3.186,-3.1884,-3.191,-3.1981,-3.2005,-3.2112,-3.2104,-3.2115,-3.2151,-3.2152,-3.222,-3.2229,-3.2259,-3.2335,-3.2351,-3.2379,-3.2344,-3.2528,-3.2531,-3.2534,-3.2531,-3.2535,-3.2539,0,0,0,0,0,-3.1852,-3.1903,-3.1911,-3.1931,-3.204,-3.2114,-3.2128,-3.2162,-3.2153,-3.218,-3.2218,-3.2227,-3.2366,-3.2342,-3.236,-3.2391,-3.2527,-3.253,-3.2534,-3.2529,-3.2534,-3.2539,0,0,0,0,0,0,-3.1831,-3.1912,-3.1923,-3.1998,-3.2049,-3.2118,-3.2153,-3.2166,-3.222,-3.2218,-3.2257,-3.2272,-3.234,-3.2372,-3.2345,-3.2459,-3.2446,-3.2453,-3.2436,-3.2441,-3.2445,-3.2436,-3.2349,0,0,0,0,0,-3.1836,-3.189,-3.1958,-3.2018,-3.2043,-3.2094,-3.2127,-3.215,-3.2203,-3.2224,-3.2268,-3.2319,-3.2374,-3.2409,-3.2463,-3.2536,-3.2551,-3.2566,-3.257,-3.2573,-3.2579,-3.2621,-3.2628,-3.2549,-3.2548,-3.2548,0,0,-3.1845,-3.1896,-3.1928,-3.2015,-3.2057,-3.2112,-3.2111,-3.2169,-3.221,-3.2233,-3.2303,-3.2337,-3.2396,-3.2468,-3.2502,-3.2497,-3.2604,-3.2577,-3.2579,-3.2584,-3.2626,-3.2633,-3.264,-3.2551,-3.2551,-3.255,0,0,-3.189,-3.1934,-3.199,-3.2033,-3.2098,-3.2132,-3.2145,-3.2213,-3.2237,-3.2309,-3.2327,-3.2376,-3.247,-3.2512,-3.2545,-3.2609,-3.262,-3.2625,-3.2646,-3.2686,-3.2693,-3.2698,-3.2722,-3.273,-3.2631,-3.2631,-3.2631,0,-3.1892,-3.1978,-3.2016,-3.2074,-3.2112,-3.2138,-3.2194,-3.2234,-3.2312,-3.2337,-3.2331,-3.2451,-3.2492,-3.2576,-3.2592,-3.2618,-3.2634,-3.2618,-3.2689,-3.2695,-3.2701,-3.2724,-3.2733,-3.2631,-3.2631,-3.2631,-3.2631,0,-3.1978,-3.2037,-3.2074,-3.2153,-3.2195,-3.2251,-3.2298,-3.2336,-3.2355,-3.2389,-3.2462,-3.2513,-3.2579,-3.26,-3.2618,-3.2686,-3.2682,-3.2681,-3.2669,-3.2709,-3.2731,-3.274,-3.2632,-3.2632,-3.2632,-3.2632,0,0,-3.2012,-3.2113,-3.2126,-3.2163,-3.2238,-3.2283,-3.2341,-3.2408,-3.244,-3.2494,-3.2544,-3.2624,-3.2625,-3.2663,-3.2687,-3.2722,-3.2771,-3.2718,-3.272,-3.2727,-3.2851,-3.2851,-3.2861,-3.2779,-3.2781,-3.2782,-3.2846,0,-3.2067,-3.2174,-3.2211,-3.2299,-3.2355,-3.2381,-3.2432,-3.2483,-3.2517,-3.2568,-3.2604,-3.2661,-3.2658,-3.2682,-3.2718,-3.2758,-3.2797,-3.2753,-3.2825,-3.2827,-3.281,-3.2872,-3.2872,-3.293,-3.2855,-3.2857,-3.2858,0,-3.2145,-3.2203,-3.2297,-3.2368,-3.2392,-3.2437,-3.2503,-3.2551,-3.261,-3.2632,-3.2676,-3.2697,-3.2759,-3.2743,-3.2828,-3.2797,-3.2829,-3.2853,-3.2856,-3.2864,-3.2845,-3.2882,-3.2949,-3.2958,-3.2872,-3.2871,-3.287,0,-3.2162,-3.2263,-3.2333,-3.2364,-3.2447,-3.2478,-3.2514,-3.2572,-3.261,-3.2666,-3.2691,-3.2753,-3.2787,-3.2834,-3.2871,-3.2856,-3.2953,-3.294,-3.2973,-3.2972,-3.2992,-3.2991,-3.3066,-3.3012,-3.3012,-3.3011,-3.3011,0,-3.222,-3.2276,-3.2342,-3.2385,-3.245,-3.2492,-3.2555,-3.2592,-3.2643,-3.2693,-3.2719,-3.2765,-3.2811,-3.2863,-3.2893,-3.296,-3.2974,-3.2993,-3.3001,-3.2992,-3.2989,-3.3013,-3.301,-3.3014,-3.3013,-3.3013,-3.3012,0,-3.2249,-3.2295,-3.2374,-3.2447,-3.2467,-3.2512,-3.2574,-3.2617,-3.2653,-3.2716,-3.2733,-3.2789,-3.2852,-3.2894,-3.2973,-3.2993,-3.3066,-3.3072,-3.3047,-3.3051,-3.3082,-3.3079,-3.3175,-3.3191,-3.3126,-3.3126,-3.3127,0,-3.2283,-3.2328,-3.2407,-3.2444,-3.2481,-3.2539,-3.2579,-3.2623,-3.2663,-3.2735,-3.2769,-3.2834,-3.2889,-3.2988,-3.3034,-3.3096,-3.3104,-3.3134,-3.3113,-3.3103,-3.3105,-3.3103,-3.3108,-3.3137,-3.3137,-3.3137,-3.3138,0,-3.2338,-3.236,-3.2418,-3.2485,-3.2533,-3.2587,-3.2641,-3.2669,-3.2722,-3.2766,-3.2832,-3.2875,-3.2958,-3.3023,-3.3089,-3.3125,-3.314,-3.3144,-3.3155,-3.3147,-3.3131,-3.3141,-3.3057,-3.3142,-3.3141,-3.3141,-3.3141,-3.3141,-3.2372,-3.2414,-3.2477,-3.2542,-3.2588,-3.2638,-3.2683,-3.2725,-3.2782,-3.2855,-3.2877,-3.2946,-3.3004,-3.3096,-3.3133,-3.3187,-3.3183,-3.3199,-3.3203,-3.3207,-3.3208,-3.3122,-3.3198,-3.3198,-3.3198,-3.3198,-3.3198,0,-3.243,-3.2473,-3.2532,-3.2608,-3.2659,-3.2672,-3.2733,-3.2774,-3.2835,-3.289,-3.2944,-3.3021,-3.3084,-3.3137,-3.3202,-3.3235,-3.3244,-3.3251,-3.3249,-3.3257,-3.3206,-3.319,-3.3243,-3.3243,-3.3243,-3.3243,-3.3243,-3.3243,-3.2466,-3.2539,-3.2568,-3.2663,-3.2705,-3.2776,-3.281,-3.2856,-3.29,-3.2986,-3.304,-3.3075,-3.3128,-3.3198,-3.3257,-3.3271,-3.3294,-3.3299,-3.3314,-3.3265,-3.326,-3.3256,-3.3241,-3.3304,-3.3304,-3.3361,-3.3362,-3.3362]}]]